User: anonymous   Login
Location: downtown San Diego
(32.7310°N, 117.1990°W)
Time: 09:55:20
(UTC-07:00)
Language:

COSMOS 2455 - Orbit

View from above orbital plane
View from above orbital plane
View from above satellite
View from above satellite

Ground track
Ground track

The orbit data is extracted from the following two-line orbital elements,

1 36095U 09063A   19291.38404952 -.00000058  00000-0  12102-4 0  9992
2 36095  67.1494  49.9883 0006348 240.7815 119.2636 13.96759386505404
Epoch (UTC): 18 October 2019 09:13:01
Eccentricity: 0.0006348
inclination: 67.1494°
perigee height: 900 km
apogee height: 909 km
right ascension of ascending node: 49.9883°
argument of perigee: 240.7815°
revolutions per day: 13.96759386
mean anomaly at epoch: 119.2636°
orbit number at epoch: 50540

The dashed part of the orbit path shows where the satellite is in the earth's shadow,  

DLR